Location: Newark
(46.7000°N, 60.6000°W)
Time: 09:47:23
(UTC+00:00)

Transit 2A Rocket - Pass Details

Date: 31 October 2020
Orbit: 588 x 915 km, 66.7° (Epoch: 23 November)

Event Time Altitude Azimuth Distance (km) Brightness Sun altitude
Rises 20:38:16 0° 328° (NNW) 3,328 8.4 0.7°
Reaches altitude 10° 20:40:56 10° 336° (NNW) 2,340 7.6 0.2°
Maximum altitude 20:46:00 42° 47° (NE) 1,030 5.3 -0.6°
Drops below altitude 10° 20:50:35 10° 119° (ESE) 2,121 6.9 -1.3°
Sets 20:52:54 0° 126° (SE) 2,984 7.7 -1.7°
